KEAMOKU RAWS NEAR CAPTAIN COOK 12E HADS current weather conditions

sailwx.info

Wind from 005 at 13 knots gusting 29

Air temperature 21.7° C
Dewpoint 7.1° C

Last reported at 2017-Jun-29 00:34 UTC.
Time now 2017-Jun-29 02:07 UTC

Location: N 19°28' W 155°22'.
View on Google Maps.

See reports from other nearby stations

  
Tides and Currents Weather Stations Pressure Air Temp Water Temp Dewpoint Dewpoint Depression Visibility Wind Speed Wind Dir Waves Ship Positions
date/time (UTC)wind fromknots sea level pressurealtimeterstation pressurevisibilityair tempwater tempwave heightnotes
2017-Jun-29 00:34 005 13 gusting 29 21.7
2017-Jun-28 23:34 357 13 gusting 26 22.2
2017-Jun-28 22:34 354 13 gusting 25 22.8
2017-Jun-28 21:34 352 13 gusting 25 22.2
2017-Jun-28 20:34 344 10 gusting 23 22.8
2017-Jun-28 19:34 340 12 gusting 24 20.6
2017-Jun-28 18:34 346 11 gusting 22 19.4
2017-Jun-28 17:34 313 9 gusting 24 16.7
2017-Jun-28 16:34 320 10 gusting 19 13.9
2017-Jun-28 15:34 323 7 gusting 14 14.4
2017-Jun-28 14:34 314 6 gusting 13 13.3
2017-Jun-28 13:34 310 6 gusting 11 13.3
2017-Jun-28 12:34 311 6 gusting 10 13.3
2017-Jun-28 11:34 312 6 gusting 10 13.3
2017-Jun-28 10:34 319 6 gusting 10 13.9
2017-Jun-28 09:34 313 5 gusting 9 13.3
2017-Jun-28 08:34 312 5 gusting 9 13.3
2017-Jun-28 07:34 308 5 gusting 9 11.7
2017-Jun-28 06:34 309 4 gusting 6 13.3
2017-Jun-28 05:34 325 3 gusting 4 12.8
2017-Jun-28 04:34 132 1 gusting 7 17.8
2017-Jun-28 03:34 137 1 gusting 10 22.2
2017-Jun-28 02:34 328 3 gusting 14 23.9
2017-Jun-28 01:34 016 9 gusting 15 23.3
2017-Jun-28 00:34 020 7 gusting 17 25.0
2017-Jun-27 23:34 016 7 gusting 15 25.6
2017-Jun-27 22:34 014 9 gusting 16 25.0
2017-Jun-27 21:34 026 6 gusting 13 26.1
2017-Jun-27 20:34 038 4 gusting 12 25.6
2017-Jun-27 19:34 072 3 gusting 11 25.0
2017-Jun-27 18:34 010 6 gusting 11 23.3
2017-Jun-27 17:34 344 4 gusting 10 21.1
2017-Jun-27 16:34 310 5 gusting 9 15.0
2017-Jun-27 15:34 313 5 gusting 10 12.8
2017-Jun-27 14:34 315 5 gusting 9 13.3
2017-Jun-27 13:34 316 5 gusting 8 13.3
2017-Jun-27 12:34 307 6 gusting 9 13.3
2017-Jun-27 11:34 312 6 gusting 9 13.9
2017-Jun-27 10:34 320 5 gusting 9 14.4
2017-Jun-27 09:34 310 5 gusting 9 13.9
2017-Jun-27 08:34 308 5 gusting 8 13.9
2017-Jun-27 07:34 327 3 gusting 8 15.0
2017-Jun-27 06:34 314 5 gusting 8 15.0
2017-Jun-27 05:34 321 4 gusting 6 15.6
2017-Jun-27 04:34 347 3 gusting 9 19.4
2017-Jun-27 03:34 043 3 gusting 9 23.3
2017-Jun-27 02:34 028 4 gusting 13 24.4